Total_Precipitation_Accumulation
0.27 0.34 0.35 0.32 0.32 0.34 0.38 0.42 0.55 0.63 0.82 0.97 0.96 1.02 1.16 1.05 0.89 0.85 0.75 0.76 0.79 0.74 0.67 0.64 0.67 0.76 0.95 1.12 1.26 1.39 1.63 1.79 1.88 1.92 1.93 1.95 1.97 2.05 2.05 1.94 1.92 2.12 2.14 2.10
0.34 0.36 0.39 0.36 0.36 0.32 0.31 0.29 0.34 0.53 0.79 0.79 0.77 0.83 0.98 0.99 1.06 1.04 0.93 0.77 0.71 0.71 0.73 0.73 0.66 0.69 0.77 0.93 1.12 1.29 1.51 1.66 1.72 1.85 1.96 1.95 1.90 1.94 1.93 1.97 2.02 2.07 2.02 2.03
0.46 0.49 0.56 0.58 0.46 0.44 0.42 0.38 0.42 0.66 0.81 0.68 0.69 0.74 0.78 0.84 0.99 0.97 0.94 0.99 0.99 0.90 0.91 0.80 0.70 0.73 0.77 0.84 1.03 1.24 1.40 1.50 1.63 1.77 1.86 1.86 1.79 1.85 1.95 1.98 1.96 1.86 1.80 1.81
0.49 0.67 0.92 0.69 0.43 0.38 0.39 0.43 0.41 0.52 0.59 0.58 0.63 0.64 0.71 0.85 0.87 0.84 0.75 0.79 0.94 1.01 1.01 0.97 0.86 0.89 0.93 0.98 1.11 1.27 1.43 1.52 1.60 1.71 1.75 1.76 1.74 1.70 1.78 1.82 1.82 1.83 1.72 1.71
0.62 0.75 0.78 0.66 0.52 0.51 0.52 0.56 0.41 0.46 0.53 0.59 0.69 0.74 0.84 0.76 0.74 0.79 0.73 0.81 0.87 0.93 1.00 1.12 1.14 1.12 1.16 1.27 1.35 1.35 1.41 1.53 1.63 1.73 1.78 1.78 1.81 1.77 1.82 1.82 1.77 1.77 1.76 1.79
0.65 0.91 1.00 0.81 0.60 0.62 0.71 1.01 0.68 0.60 0.68 0.75 0.77 1.02 1.10 0.77 0.78 0.93 0.79 0.78 0.86 0.90 0.90 1.07 1.19 1.22 1.26 1.32 1.38 1.36 1.42 1.53 1.64 1.75 1.89 1.87 1.94 1.96 1.93 1.83 1.76 1.78 1.84 1.82
0.71 0.95 1.06 0.75 0.59 0.70 1.25 1.40 0.86 0.78 0.81 0.87 0.94 0.96 0.91 0.78 0.88 1.04 0.91 0.85 0.77 0.84 1.03 1.13 1.18 1.27 1.34 1.32 1.37 1.40 1.54 1.62 1.72 1.80 1.86 1.85 1.93 1.99 1.99 1.93 1.93 1.82 1.72 1.74
0.94 1.23 1.34 0.81 0.73 1.02 1.19 0.89 0.84 0.84 0.80 0.84 0.85 0.82 0.76 0.72 0.78 0.88 0.95 0.95 0.95 1.04 1.14 1.18 1.23 1.39 1.52 1.56 1.50 1.60 1.70 1.68 1.75 1.86 1.72 1.72 1.96 2.04 2.06 2.09 2.06 1.95 1.84 1.77
1.17 1.30 1.12 1.00 1.05 1.10 0.96 0.99 0.89 0.80 0.80 0.78 0.79 0.78 0.78 0.76 0.69 0.76 0.92 0.95 1.00 1.11 1.13 1.17 1.24 1.41 1.65 1.68 1.61 1.62 1.70 1.74 1.74 1.79 1.91 1.99 2.06 2.11 2.09 2.05 2.04 2.02 1.98 1.89
1.37 1.34 1.18 1.17 1.16 1.15 1.07 1.04 0.95 0.83 0.86 0.82 0.85 0.94 0.89 0.88 0.88 0.81 0.85 0.89 0.94 1.07 1.09 1.20 1.30 1.47 1.74 1.78 1.73 1.76 1.83 1.90 1.88 1.84 1.90 2.08 2.26 2.27 2.19 2.05 2.09 2.13 2.04 2.03
1.69 1.60 1.39 1.22 1.07 1.02 0.97 0.91 0.86 0.88 0.93 0.94 0.93 1.01 1.00 1.05 1.10 1.01 0.93 0.91 1.00 1.15 1.27 1.31 1.36 1.45 1.62 1.78 1.92 2.00 2.03 2.01 2.01 2.03 2.07 2.15 2.15 2.14 2.13 2.08 2.02 2.07 2.06 2.04
1.95 1.60 1.44 1.37 1.21 1.17 0.98 0.86 0.85 0.88 0.90 0.97 0.97 1.02 1.01 1.07 1.14 1.11 1.12 1.20 1.20 1.23 1.35 1.42 1.45 1.53 1.64 1.86 2.13 2.32 2.29 2.19 2.18 2.16 2.18 2.16 2.18 2.01 1.88 1.81 1.74 1.65 1.68 1.70
1.64 1.44 1.35 1.26 1.19 1.25 1.16 1.03 0.98 0.98 0.95 1.01 1.09 1.08 1.09 1.12 1.13 1.16 1.16 1.30 1.40 1.36 1.37 1.44 1.46 1.59 1.71 1.85 2.11 2.38 2.45 2.39 2.29 2.22 2.14 2.10 2.17 2.17 2.07 1.95 1.90 1.75 1.60 1.52
1.52 1.57 1.51 1.36 1.27 1.26 1.34 1.26 1.10 1.08 1.01 0.99 1.12 1.24 1.24 1.14 1.13 1.19 1.19 1.25 1.30 1.33 1.36 1.36 1.35 1.41 1.62 1.91 2.19 2.35 2.37 2.32 2.25 2.21 2.13 2.09 2.16 2.21 2.14 2.09 2.07 1.94 1.74 1.63
1.50 1.66 1.61 1.39 1.41 1.33 1.26 1.24 1.26 1.37 1.18 1.06 1.14 1.39 1.39 1.19 1.15 1.23 1.24 1.20 1.24 1.31 1.38 1.37 1.41 1.47 1.57 1.87 2.23 2.37 2.32 2.24 2.19 2.15 2.19 2.24 2.27 2.31 2.26 2.22 2.18 2.09 1.85 1.68
1.50 1.57 1.54 1.38 1.39 1.38 1.28 1.29 1.36 1.40 1.25 1.13 1.14 1.35 1.54 1.40 1.25 1.28 1.27 1.32 1.40 1.41 1.45 1.44 1.45 1.53 1.63 1.83 2.12 2.30 2.38 2.35 2.23 2.09 2.06 2.15 2.24 2.19 2.17 2.20 2.17 2.10 1.98 1.76
1.67 1.75 1.62 1.43 1.35 1.35 1.38 1.39 1.45 1.49 1.46 1.38 1.30 1.34 1.46 1.43 1.42 1.42 1.40 1.43 1.54 1.56 1.54 1.55 1.57 1.61 1.68 1.85 2.05 2.07 2.12 2.05 1.99 1.83 1.79 1.82 1.96 2.03 2.05 2.14 2.09 1.95 1.83 1.74
1.76 1.78 1.66 1.47 1.33 1.31 1.37 1.38 1.40 1.51 1.61 1.52 1.46 1.53 1.65 1.67 1.72 1.72 1.59 1.53 1.57 1.63 1.66 1.65 1.64 1.68 1.74 1.81 2.00 1.99 1.99 1.94 1.82 1.71 1.72 1.79 1.88 1.93 2.01 2.09 2.04 1.93 1.76 1.67
1.71 1.62 1.50 1.43 1.38 1.41 1.49 1.48 1.44 1.48 1.55 1.54 1.57 1.62 1.69 1.80 1.82 1.79 1.76 1.77 1.80 1.88 1.88 1.81 1.81 1.63 1.71 1.84 2.03 2.17 2.15 2.06 2.00 1.94 1.84 1.89 1.88 1.92 2.03 1.99 1.91 1.89 1.82 1.69
1.68 1.59 1.51 1.53 1.48 1.50 1.53 1.49 1.47 1.39 1.36 1.43 1.51 1.53 1.62 1.78 1.85 1.84 1.81 1.78 1.84 1.95 1.97 1.89 1.65 1.56 1.61 1.79 2.01 2.03 2.17 2.17 2.06 1.93 1.84 1.79 1.80 1.90 1.93 1.83 1.71 1.70 1.66 1.55
1.81 1.75 1.72 1.66 1.65 1.60 1.55 1.51 1.44 1.38 1.35 1.41 1.52 1.58 1.66 1.84 1.95 1.96 2.00 1.97 1.86 1.79 1.67 1.67 1.54 1.54 1.53 1.66 1.79 1.82 1.96 2.04 2.06 1.96 1.81 1.68 1.62 1.64 1.64 1.58 1.53 1.50 1.50 1.48
1.86 1.72 1.64 1.50 1.46 1.46 1.39 1.34 1.27 1.25 1.28 1.34 1.45 1.54 1.62 1.75 1.91 1.90 1.84 1.93 1.87 1.78 1.53 1.45 1.48 1.60 1.63 1.60 1.54 1.68 1.82 1.84 1.79 1.70 1.57 1.46 1.43 1.45 1.43 1.36 1.32 1.26 1.23 1.22
1.78 1.55 1.47 1.40 1.32 1.27 1.19 1.13 1.09 1.14 1.20 1.24 1.37 1.55 1.71 1.70 1.70 1.77 1.74 1.58 1.50 1.47 1.36 1.34 1.40 1.44 1.41 1.38 1.45 1.53 1.60 1.61 1.60 1.58 1.52 1.42 1.36 1.38 1.32 1.19 1.14 1.07 1.02 0.99
1.58 1.37 1.29 1.25 1.17 1.10 1.07 1.03 0.98 0.99 1.03 1.11 1.22 1.36 1.56 1.67 1.58 1.42 1.45 1.43 1.27 1.14 1.10 1.16 1.14 1.12 1.11 1.08 1.21 1.33 1.38 1.39 1.40 1.37 1.31 1.26 1.24 1.25 1.15 1.04 0.98 0.94 0.94 0.92
1.47 1.34 1.24 1.17 1.14 1.08 1.01 0.97 0.95 0.96 1.01 1.12 1.19 1.23 1.40 1.59 1.63 1.37 1.15 1.04 0.99 0.90 0.86 0.87 0.84 0.84 0.81 0.81 0.87 0.99 1.09 1.15 1.20 1.20 1.15 1.15 1.16 1.18 1.09 0.99 0.92 0.89 0.88 0.87
1.42 1.34 1.31 1.22 1.15 1.14 1.09 1.04 1.08 1.09 1.15 1.31 1.33 1.22 1.26 1.33 1.30 1.17 1.02 0.87 0.83 0.84 0.75 0.69 0.66 0.63 0.57 0.55 0.60 0.73 0.80 0.87 0.95 0.96 0.94 0.98 1.02 1.03 1.01 0.98 0.92 0.88 0.87 0.87
1.32 1.29 1.28 1.20 1.10 1.09 1.13 1.15 1.19 1.21 1.32 1.54 1.59 1.38 1.26 1.23 1.20 1.12 1.04 0.93 0.86 0.87 0.79 0.70 0.67 0.64 0.60 0.58 0.59 0.66 0.71 0.74 0.80 0.84 0.84 0.83 0.86 0.92 0.93 0.91 0.93 0.88 0.82 0.79